This is the latest recevied weather packets stored in our database for station/object K8JCL-13. If no packets are shown the sender has not sent any weather packets the latest 1 day(s).
| Time | Temp. | Humidity | Pressure | Rain* | Wind** | Luminosity | Snow |
|---|---|---|---|---|---|---|---|
| 1777986154 | 13.89° C | 99% | 1007.9 hPa | 0 mm | 0.45 m/s, 11° | 124 W/m² | - |
| 1777985851 | 13.89° C | 99% | 1008 hPa | 0 mm | 0 m/s | 84 W/m² | - |
| 1777985548 | 13.89° C | 99% | 1008.5 hPa | 0 mm | 0 m/s | 88 W/m² | - |
| 1777985245 | 13.89° C | 99% | 1008.2 hPa | 0 mm | 0.45 m/s, 112° | 79 W/m² | - |
| 1777984941 | 13.89° C | 99% | 1008.3 hPa | 0 mm | 0 m/s | 57 W/m² | - |
| 1777984637 | 13.89° C | 99% | 1008.5 hPa | 0 mm | 0 m/s | 41 W/m² | - |
| 1777984334 | 13.89° C | 99% | 1008.4 hPa | 0 mm | 0 m/s | 48 W/m² | - |
| 1777984031 | 13.33° C | 99% | 1008.4 hPa | 0 mm | 0 m/s | 46 W/m² | - |
| 1777983728 | 13.33° C | 99% | 1008.5 hPa | 0 mm | 0 m/s | 45 W/m² | - |
| 1777983424 | 13.33° C | 99% | 1008.4 hPa | 0 mm | 0 m/s | 51 W/m² | - |
| 1777983121 | 13.33° C | 99% | 1008.3 hPa | 0 mm | 0 m/s | 39 W/m² | - |
| 1777982817 | 13.33° C | 99% | 1008.5 hPa | 0 mm | 0 m/s | 39 W/m² | - |
| 1777982514 | 13.33° C | 99% | 1008.4 hPa | 0 mm | 0 m/s | 39 W/m² | - |
| 1777982207 | 13.33° C | 99% | 1008.3 hPa | 0 mm | 0 m/s | 32 W/m² | - |
| 1777981905 | 12.78° C | 99% | 1008.3 hPa | 0 mm | 0 m/s | 36 W/m² | - |
| 1777981602 | 13.33° C | 99% | 1008.2 hPa | 0 mm | 0 m/s | 41 W/m² | - |
| 1777981298 | 12.78° C | 99% | 1008.2 hPa | 0 mm | 0 m/s | 46 W/m² | - |
| 1777980995 | 12.78° C | 99% | 1008.1 hPa | 0 mm | 0 m/s | 48 W/m² | - |
| 1777980692 | 12.78° C | 99% | 1007.9 hPa | 0 mm | 0 m/s | 36 W/m² | - |
| 1777980388 | 12.78° C | 99% | 1007.5 hPa | 0 mm | 0 m/s | 28 W/m² | - |
| 1777980086 | 12.78° C | 99% | 1007.5 hPa | 0 mm | 0.45 m/s, 89° | 15 W/m² | - |
| 1777979780 | 12.78° C | 99% | 1007.4 hPa | 0 mm | 0 m/s | 7 W/m² | - |
| 1777979476 | 12.78° C | 99% | 1007.2 hPa | 0 mm | 0 m/s | 5 W/m² | - |
| 1777979172 | 12.78° C | 99% | 1007.3 hPa | 0 mm | 0 m/s | 5 W/m² | - |
| 1777978870 | 12.78° C | 99% | 1007.4 hPa | 0 mm | 0 m/s | 8 W/m² | - |
* Rain latest hour (hover to see other rain measurements)
** Current wind speed in m/s (hover to see current wind gust speed)